Satellite: CO-58
Catalog number: 28895
Epoch time:      09315.70712214
Element set:     439
Inclination:      098.0380 deg
RA of node:       202.0196 deg
Eccentricity:    0.0016892
Arg of perigee:   246.1717 deg
Mean anomaly:     113.7713 deg
Mean motion:   14.59812517 rev/day
Decay rate:        3.9e-07 rev/day^2
Epoch rev:           21525
Checksum:              309

Satellite: FALCON
Catalog number: 30776
Epoch time:      09315.93745764
Element set:    0699
Inclination:      035.4348 deg
RA of node:       282.9189 deg
Eccentricity:    0.0000418
Arg of perigee:   096.8023 deg
Mean anomaly:     263.2748 deg
Mean motion:   15.03362038 rev/day
Decay rate:       3.54e-06 rev/day^2
Epoch rev:           14734
Checksum:              320

Satellite: MAST
Catalog number: 31126
Epoch time:      09315.69557862
Element set:     729
Inclination:      097.9696 deg
RA of node:       003.5977 deg
Eccentricity:    0.0094733
Arg of perigee:   181.3537 deg
Mean anomaly:     178.7423 deg
Mean motion:   14.53528900 rev/day
Decay rate:       -4.0e-08 rev/day^2
Epoch rev:           13646
Checksum:              333

Satellite: CAPE1
Catalog number: 31130
Epoch time:      09316.08638674
Element set:     740
Inclination:      097.9710 deg
RA of node:       001.8281 deg
Eccentricity:    0.0102612
Arg of perigee:   186.7410 deg
Mean anomaly:     173.2414 deg
Mean motion:   14.52102425 rev/day
Decay rate:       1.58e-06 rev/day^2
Epoch rev:           13615
Checksum:              260

Satellite: COMPASS
Catalog number: 32787
Epoch time:      09316.87821707
Element set:     515
Inclination:      097.9256 deg
RA of node:       019.3078 deg
Eccentricity:    0.0014741
Arg of perigee:   269.7174 deg
Mean anomaly:     090.2350 deg
Mean motion:   14.81690392 rev/day
Decay rate:       3.12e-06 rev/day^2
Epoch rev:            8346
Checksum:              314

Satellite: AAUSAT2
Catalog number: 32788
Epoch time:      09315.82068403
Element set:     509
Inclination:      097.9266 deg
RA of node:       018.3464 deg
Eccentricity:    0.0014036
Arg of perigee:   272.9722 deg
Mean anomaly:     086.9881 deg
Mean motion:   14.81819068 rev/day
Decay rate:       5.71e-06 rev/day^2
Epoch rev:            8331
Checksum:              326

Satellite: DO-64
Catalog number: 32789
Epoch time:      09316.17930082
Element set:     524
Inclination:      097.9316 deg
RA of node:       018.9667 deg
Eccentricity:    0.0014613
Arg of perigee:   271.2205 deg
Mean anomaly:     088.7333 deg
Mean motion:   14.81848340 rev/day
Decay rate:       3.92e-06 rev/day^2
Epoch rev:            8336
Checksum:              322

Satellite: CO-66
Catalog number: 32791
Epoch time:      09316.19578811
Element set:     505
Inclination:      097.9276 deg
RA of node:       018.6639 deg
Eccentricity:    0.0015192
Arg of perigee:   270.9144 deg
Mean anomaly:     089.0318 deg
Mean motion:   14.81506135 rev/day
Decay rate:        8.5e-07 rev/day^2
Epoch rev:            8332
Checksum:              324

Satellite: RS-30
Catalog number: 32953
Epoch time:      09316.04910034
Element set:     451
Inclination:      082.5017 deg
RA of node:       164.6909 deg
Eccentricity:    0.0018161
Arg of perigee:   215.7828 deg
Mean anomaly:     144.2034 deg
Mean motion:   12.43003247 rev/day
Decay rate:        1.0e-07 rev/day^2
Epoch rev:            6676
Checksum:              264

Satellite: TACSAT-3
Catalog number: 35001
Epoch time:      09316.79775877
Element set:     142
Inclination:      040.4547 deg
RA of node:       071.5755 deg
Eccentricity:    0.0022783
Arg of perigee:   190.0997 deg
Mean anomaly:     169.9362 deg
Mean motion:   15.39528408 rev/day
Decay rate:      3.337e-05 rev/day^2
Epoch rev:            2725
Checksum:              328

Satellite: PHARMSAT
Catalog number: 35002
Epoch time:      09316.45141526
Element set:     136
Inclination:      040.4680 deg
RA of node:       072.6332 deg
Eccentricity:    0.0025797
Arg of perigee:   191.8307 deg
Mean anomaly:     168.2005 deg
Mean motion:   15.40254806 rev/day
Decay rate:      3.242e-05 rev/day^2
Epoch rev:            2720
Checksum:              258

Satellite: HAWKSAT1
Catalog number: 35003
Epoch time:      09315.66528578
Element set:     143
Inclination:      040.4604 deg
RA of node:       076.2060 deg
Eccentricity:    0.0025465
Arg of perigee:   190.6189 deg
Mean anomaly:     169.4091 deg
Mean motion:   15.41272475 rev/day
Decay rate:      6.308e-05 rev/day^2
Epoch rev:            2710
Checksum:              283

Satellite: CP6
Catalog number: 35004
Epoch time:      09316.37326279
Element set:     136
Inclination:      040.4608 deg
RA of node:       071.9023 deg
Eccentricity:    0.0024830
Arg of perigee:   195.8031 deg
Mean anomaly:     164.2031 deg
Mean motion:   15.41432580 rev/day
Decay rate:      7.491e-05 rev/day^2
Epoch rev:            2720
Checksum:              264

Satellite: AEROCUB3
Catalog number: 35005
Epoch time:      09316.72001073
Element set:     139
Inclination:      040.4727 deg
RA of node:       070.3296 deg
Eccentricity:    0.0025097
Arg of perigee:   195.3429 deg
Mean anomaly:     164.6625 deg
Mean motion:   15.41188833 rev/day
Decay rate:      6.898e-05 rev/day^2
Epoch rev:            2725
Checksum:              302

